Regional Weather Roundup
Issued by NWS

Home | Current Version | Previous Version | Text Only | Print | Product List | Glossary On
Versions: 1 2 3 4 5 6 7 8 9 10 11 12 13 14 15 16 17 18 19 20 21 22 23 24 25 26 27 28 29 30 31 32 33 34 35 36 37 38 39 40 41 42 43 44 45 46 47 48 49 50
575
ASUS43 KTOP 191308
RWRKS

WEATHER ROUNDUP FOR KANSAS
NATIONAL WEATHER SERVICE GOODLAND KS
700 AM CST MON FEB 19 2018

NOTE:  "FAIR" INDICATES FEW OR NO CLOUDS BELOW 12,000 FEET WITH NO
SIGNIFICANT WEATHER AND/OR OBSTRUCTIONS TO VISIBILITY.

KSZ001>006-013>018-027>032-041>047-191400-
NORTHWEST KANSAS

CITY           SKY/WX    TMP DP  RH WIND       PRES   REMARKS
GOODLAND       FLURRIES  14  10  84 N16       29.77R WCI  -2
HAYS           CLOUDY    22  18  85 N23G29    29.79R WCI   6
HILL CITY      CLOUDY    21  18  88 N16G26    29.81R WCI   7
RUSSELL        CLOUDY    25  22  88 N21       29.76R WCI  11
$$

KSZ061>065-074>080-084>089-191400-
SOUTHWEST KANSAS

CITY           SKY/WX    TMP DP  RH WIND       PRES   REMARKS
DODGE CITY     CLOUDY    24  32 100 N23G31    29.74R WCI   9
ELKHART        CLOUDY    28  26  94 N16       29.71R WCI  16
GARDEN CITY    CLOUDY    21  18  88 N21G28    29.76R WCI   5
GREAT BEND     CLOUDY    25  23  92 NW20      29.77R WCI  11
LIBERAL        CLOUDY    27  23  85 N21       29.74R WCI  13
PRATT          CLOUDY    29  25  87 N22       29.74R WCI  15
$$

KSZ066>073-081>083-090>101-191400-
SOUTHEAST KANSAS

CITY           SKY/WX    TMP DP  RH WIND       PRES   REMARKS
CHANUTE        CLOUDY    64  60  87 S23G38    29.68S
COFFEYVILLE    CLOUDY    63  59  87 S21G30    29.71S
HUTCHINSON     CLOUDY    33  28  81 NW17G24   29.72R WCI  22
MEDICINE LODGE   N/A     34  28  79 N18G33    29.71R WCI  23
NEWTON         CLOUDY    38  32  79 NW21      29.69R WCI  28
PARSONS        CLOUDY    63  60  90 S18G29    29.71S
WICHITA INTL   CLOUDY    42  36  79 NW20      29.69R
WICHITA JABRA  CLOUDY    43  38  82 NW20G28   29.68R
WICHITA MCCONL CLOUDY    46  41  81 N18       29.68
WINFIELD       MOCLDY    65  61  87 S25G43    29.66R
$$

KSZ007>012-019>026-033>040-048>060-102>105-191400-
NORTHEAST KANSAS

CITY           SKY/WX    TMP DP  RH WIND       PRES   REMARKS
CONCORDIA      CLOUDY    23  21  92 N22G35    29.74S WCI   8
EMPORIA        CLOUDY    63  59  87 S21       29.62S
LAWRENCE       CLOUDY    63  60  90 S12       29.62R
MANHATTAN      CLOUDY    36  31  82 N9G20     29.70R
MARYSVILLE     CLOUDY    30  28  93 N21G28    29.70R WCI  17
OLATHE IND     CLOUDY    63  60  90 S17G25    29.65S
OLATHE EXE     CLOUDY    61  59  93 S17       29.65R
SALINA         CLOUDY    30  27  88 N23       29.75R WCI  17
TOPEKA BILLARD CLOUDY    64  60  87 S10       29.59F
TOPEKA FORBES  CLOUDY    65  60  84 S13       29.60S
$$




USA.gov is the U.S. government's official web portal to all federal, state and local government web resources and services.